Location: Unspecified
(0.0000°N, 0.0000°E)
Time: 17:24:34
(UTC+00:00)

STARLINK 1050 - Pass Details

Date: 24 January 2020
Orbit: 548 x 551 km, 53.0° (Epoch: 23 January)

Event Time Altitude Azimuth Distance (km) Brightness Sun altitude
Exits shadow 04:29:27 12° 23° (NNE) 1,662 6.1 -24.1°
Drops below altitude 10° 04:29:53 10° 24° (NNE) 1,835 6.3 -24.0°
Sets 04:32:04 0° 28° (NNE) 2,697 7.2 -23.5°
